EW9911 Weather Reports


time (UTC)temp
F
wind
direction
speed
knots
gust
knots
rain 1hr
in
rain 24hr
in
rain mn
in
humidity
%
barometer
mb
20260507104531 67 360 0.0 0.0 0.00 0.00 0.00 33 1011.8
20260507103032 68 360 0.0 0.0 0.00 0.00 0.00 32 1011.8
20260507101530 70 360 0.0 0.0 0.00 0.00 0.00 32 1011.8
20260507100037 69 360 0.0 0.0 0.00 0.00 0.00 31 1011.8
20260507094530 71 360 0.0 0.0 0.00 0.00 0.00 30 1011.8
20260507093030 71 360 0.0 2.6 0.00 0.00 0.00 31 1011.9
20260507091528 72 360 0.0 0.0 0.00 0.00 0.00 30 1011.9
20260507090027 72 360 0.0 0.0 0.00 0.00 0.00 30 1012.0
20260507084528 68 360 0.0 0.0 0.00 0.00 0.00 34 1012.0
20260507083027 67 360 0.0 0.0 0.00 0.00 0.00 33 1012.0
20260507081533 65 360 0.0 0.9 0.00 0.00 0.00 35 1012.1
20260507080026 66 360 0.0 0.0 0.00 0.00 0.00 34 1012.2
20260507074531 68 360 0.0 0.0 0.00 0.00 0.00 34 1011.8
20260507073026 68 360 0.0 0.0 0.00 0.00 0.00 33 1011.8
20260507071532 69 360 0.0 0.0 0.00 0.00 0.00 32 1011.8
20260507070028 69 360 0.0 0.0 0.00 0.00 0.00 32 1011.8
20260507064534 70 360 0.0 0.0 0.00 0.00 0.00 31 1011.8
20260507063026 71 360 0.0 0.0 0.00 0.00 0.00 30 1011.7
20260507061531 71 360 0.0 0.0 0.00 0.00 0.00 30 1011.7
20260507060024 71 360 0.0 0.0 0.00 0.00 0.00 29 1011.6
20260507054523 72 360 0.0 0.0 0.00 0.00 0.00 29 1011.8
20260507053029 73 360 0.0 0.0 0.00 0.00 0.00 29 1011.7
20260507051524 73 360 0.0 0.0 0.00 0.00 0.00 29 1011.8
20260507050023 73 360 0.0 0.0 0.00 0.00 0.00 28 1011.7
20260507044523 73 360 0.0 0.0 0.00 0.00 0.00 26 1011.7
20260507043023 74 360 0.0 0.0 0.00 0.00 0.00 25 1011.7
20260507041523 75 360 0.0 0.0 0.00 0.00 0.00 24 1011.6
20260507040023 75 360 0.0 0.0 0.00 0.00 0.00 24 1011.4
20260507034532 76 360 0.0 0.0 0.00 0.00 0.00 23 1011.2
20260507033023 78 360 0.0 0.0 0.00 0.00 0.00 22 1010.9
20260507031522 79 360 0.0 0.0 0.00 0.00 0.00 22 1010.9
20260507030023 80 360 0.0 0.0 0.00 0.00 0.00 21 1010.7
20260507024521 80 360 0.0 0.0 0.00 0.00 0.00 20 1010.6
20260507023020 81 360 0.0 0.0 0.00 0.00 0.00 20 1010.5
20260507021520 82 360 0.0 0.0 0.00 0.00 0.00 20 1010.4
20260507020020 82 360 0.0 0.0 0.00 0.00 0.00 19 1010.3
20260507014523 83 360 0.0 0.0 0.00 0.00 0.00 19 1010.3
20260507013019 83 360 0.0 0.0 0.00 0.00 0.00 19 1010.3
20260507011518 83 360 0.0 1.7 0.00 0.00 0.00 19 1010.3
20260507010029 84 360 0.0 0.0 0.00 0.00 0.00 19 1010.3
20260507004518 84 360 0.0 3.5 0.00 0.00 0.00 18 1010.2
20260507003017 84 79 0.0 2.6 0.00 0.00 0.00 19 1010.2
20260507001517 84 360 0.0 0.0 0.00 0.00 0.00 19 1010.3
20260507000016 84 360 0.0 8.7 0.00 0.00 0.00 19 1010.2
20260506234532 84 360 0.0 0.0 0.00 0.00 0.00 19 1010.2
20260506233013 85 360 0.0 0.0 0.00 0.00 0.00 19 1010.5
20260506231514 83 360 0.0 3.5 0.00 0.00 0.00 20 1010.6
20260506230015 83 360 0.0 0.0 0.00 0.00 0.00 20 1010.7
20260506224523 83 360 0.0 0.0 0.00 0.00 0.00 20 1010.9
20260506223010 83 360 0.0 0.0 0.00 0.00 0.00 21 1011.2
20260506221505 83 52 0.0 0.0 0.00 0.00 0.00 20 1011.4
20260506220003 82 360 0.0 2.6 0.00 0.00 0.00 21 1011.6
20260506214559 82 360 0.0 0.0 0.00 0.00 0.00 21 1011.8
20260506213056 81 360 0.0 0.0 0.00 0.00 0.00 22 1012.1
20260506211558 80 360 0.0 3.5 0.00 0.00 0.00 22 1012.4
20260506210054 80 360 0.0 2.6 0.00 0.00 0.00 22 1012.5
20260506204553 80 360 0.0 0.0 0.00 0.00 0.00 22 1012.6
20260506203057 80 360 0.0 3.5 0.00 0.00 0.00 22 1012.9
20260506201548 79 360 0.0 0.0 0.00 0.00 0.00 23 1013.1
20260506200046 79 360 0.0 0.0 0.00 0.00 0.00 24 1013.3
20260506194545 78 360 0.0 0.0 0.00 0.00 0.00 24 1013.4
20260506193047 77 360 0.0 4.3 0.00 0.00 0.00 26 1013.7
20260506191540 76 360 0.0 2.6 0.00 0.00 0.00 25 1013.7
20260506190038 75 360 0.0 2.6 0.00 0.00 0.00 26 1013.9
20260506184537 74 360 0.0 2.6 0.00 0.00 0.00 27 1014.1
20260506183040 74 360 0.0 3.5 0.00 0.00 0.00 27 1014.3
20260506181536 74 360 0.0 1.7 0.00 0.00 0.00 27 1014.4
20260506180032 74 360 0.0 2.6 0.00 0.00 0.00 28 1014.3
20260506174528 73 360 0.0 3.5 0.00 0.00 0.00 30 1014.3
20260506173026 72 360 0.0 0.0 0.00 0.00 0.00 31 1014.3
20260506171528 70 360 0.0 0.0 0.00 0.00 0.00 32 1014.3
20260506170026 70 360 0.0 0.0 0.00 0.00 0.00 34 1014.3
20260506164523 69 360 0.0 1.7 0.00 0.00 0.00 35 1014.4
20260506163020 67 360 0.0 0.0 0.00 0.00 0.00 37 1014.4
20260506160020 66 360 0.0 6.1 0.00 0.00 0.00 39 1014.3
20260506154516 65 360 0.0 5.2 0.00 0.00 0.00 40 1014.3
20260506153009 63 11 0.0 0.0 0.00 0.00 0.00 42 1014.3
20260506151506 62 360 0.0 4.3 0.00 0.00 0.00 43 1014.3
20260506150003 61 9 0.0 0.0 0.00 0.00 0.00 45 1014.4
20260506144501 61 360 0.0 0.0 0.00 0.00 0.00 45 1014.4
20260506143058 60 360 0.0 0.0 0.00 0.00 0.00 46 1014.3
20260506140055 57 360 0.0 0.0 0.00 0.00 0.00 49 1014.1
20260506134551 57 360 0.0 0.0 0.00 0.00 0.00 50 1014.0
20260506133051 56 13 0.0 0.0 0.00 0.00 0.00 50 1013.8
20260506130052 56 360 0.0 0.0 0.00 0.00 0.00 50 1013.3
20260506124543 56 360 0.0 0.0 0.00 0.00 0.00 51 1013.2
20260506123042 56 360 0.0 0.0 0.00 0.00 0.00 51 1013.1
20260506120040 54 360 0.0 0.0 0.00 0.00 0.00 53 1012.9
20260506114538 54 360 0.0 0.0 0.00 0.00 0.00 53 1012.8
20260506113037 54 360 0.0 0.0 0.00 0.00 0.00 53 1012.6
20260506110038 53 360 0.0 0.0 0.00 0.00 0.00 53 1012.6